Location: Tel Aviv
(32.0670°N, 34.7670°E)
Time: 11:24:32
(UTC+03:00)

Explorer 11/Cluster Stage 4 - Pass Details

Date: 16 September 2024
Orbit: 464 x 1208 km, 28.8° (Epoch: 06 October)

Event Time Altitude Azimuth Distance (km) Brightness Sun altitude
Rises 11:44:17 0° 274° (W) 4,028 10.1 58.0°
Reaches altitude 10° 11:47:19 10° 266° (W) 3,112 9.6 58.2°
Maximum altitude 11:54:25 37° 203° (SSW) 1,782 9.5 58.8°
Drops below altitude 10° 12:01:24 10° 139° (SE) 3,051 10.2 59.2°
Sets 12:04:21 0° 132° (SE) 3,941 10.5 59.4°
